SCP
0 0 0 0 0 0 0 0 0 0 0 0 0 0 0 0 0 0 0 0 0 0 0 0 0 0 0 0 0 0 0 0 0 0 0 0 0 0 0 0 0 0 0
0 0 0 0 0 0 0 0 0 0 0 0 0 0 0 0 0 0 0 0 0 0 0 0 0 0 0 0 0 0 0 0 0 0 0 0 0 0 0 0 0 0 0
0 0 0 0 0 0 0 0 0 0 0 0 0 0 0 0 0 0 0 0 0 0 0 0 0 0 0 0 0 0 0 0 0 0 0 0 0 0 0 0 0 0 0
0 0 0 0 0 0 0 0 0 0 0 0 0 0 0 0 0 0 0 0 0 0 0 0 0 0 0 0 0 0 0 0 0 0 0 0 0 0 0 0 0 0 0
0 0 0 0 0 0 0 0 0 0 0 0 0 0 0 0 0 0 0 0 0 0 0 0 0 0 -0 -0 0 0 0 0 0 0 0 0 0 0 0 0 0 0 0
0 0 0 0 0 0 0 0 0 0 0 0 0 0 0 0 -0 -0 0 0 0 0 0 0 0 0 0 0 -0 -0 0 0 0 0 0 0 0 0 0 0 0 0 0
0 0 0 0 0 0 0 0 0 0 0 0 0 0 0 0 -0 -0 0 0 0 0 0 0 0 0 0 0 0 0 0 0 0 0 0 -0 -0 0 0 0 0 0 0
0 0 0 0 0 0 0 0 0 0 0 0 0 0 0 0 -0 -0 -0 -0 0 0 0 0 0 0 0 0 0 0 0 0 0 0 -0 -0 -0 -0 0 0 0 0 0
0 0 0 0 0 0 0 0 0 0 0 0 0 0 0 0 0 0 0 0 0 0 0 0 0 0 0 -0 0 -0 0 0 -0 -0 -0 -0 -0 -0 -0 0 0 0 0
0 0 0 0 0 0 0 0 0 0 0 0 0 0 0 0 0 0 0 0 0 0 0 0 0 0 -0 -0 -0 0 0 -0 -0 -0 -0 0 -0 -0 0 0 0 0 0
0 0 0 0 0 0 0 0 0 0 0 0 0 0 0 0 0 0 0 0 0 0 0 0 0 -0 -0 0 0 0 0 -0 -0 0 0 0 -0 -0 0 0 0 0 0
0 0 0 0 0 0 0 0 0 0 0 0 -0 0 0 0 0 0 0 0 0 0 0 0 0 0 -0 -0 0 0 -0 0 0 0 0 0 0 0 0 0 0 0 0
0 0 0 0 0 0 0 0 0 0 -0 0 0 0 0 0 0 0 0 0 0 0 0 0 0 0 0 0 0 0 0 0 0 0 0 0 0 0 0 0 0 -0 -0
0 0 0 0 0 0 0 0 0 0 0 0 0 0 0 0 0 0 0 0 0 0 0 0 0 0 0 0 0 0 0 0 0 0 0 0 0 0 0 0 0 0 0
0 0 0 0 0 0 0 0 0 0 0 0 0 -0 0 -0 0 0 0 -0 0 0 0 0 0 0 0 0 0 0 0 0 0 0 0 0 0 0 0 0 0 0 0
0 0 0 0 0 0 0 0 0 0 0 -0 -0 -0 -0 0 -0 0 0 0 0 0 0 0 0 0 0 0 0 0 0 0 0 0 0 0 0 0 0 0 0 -0 -0
0 0 0 0 0 0 0 0 0 0 0 -0 -0 0 -0 -0 0 0 0 0 0 0 0 0 0 0 0 0 0 0 0 0 0 0 0 -0 -0 0 0 0 0 0 0
0 0 0 0 0 0 0 0 0 0 0 0 0 0 0 0 -0 -0 -0 0 -0 0 0 0 0 0 0 0 0 0 0 0 0 0 0 0 0 -0 0 -0 0 0 0
0 0 0 0 0 0 0 0 0 0 0 0 0 0 0 0 0 0 0 0 -0 -0 0 0 0 0 0 0 0 0 0 0 0 0 0 0 0 0 0 0 0 -0 -0
0 0 0 0 0 0 0 0 0 0 0 0 0 0 0 0 0 0 0 0 0 0 -0 -0 -0 0 0 0 0 0 0 -0 -0 0 0 0 0 0 -0 0 0 -0 -0
0 0 0 0 0 0 0 0 0 0 0 0 0 0 0 0 0 0 0 0 0 0 0 0 -0 -0 -0 0 0 0 0 0 0 -0 -0 -0 -0 0 -0 0 0 0 0
0 0 0 0 0 0 0 0 0 0 0 0 0 0 0 0 0 0 0 0 0 0 0 0 0 0 -0 0 0 0 0 0 0 0 0 0 0 0 0 0 0 0 0
0 0 0 0 0 0 0 0 0 0 0 0 0 0 0 0 0 0 0 0 0 0 0 0 0 0 -0 0 0 0 0 0 0 0 0 0 0 0 0 0 0 0 0
0 0 0 0 0 0 0 0 0 0 0 0 0 0 0 0 0 0 0 0 0 0 0 0 0 0 0 0 0 0 0 0 0 0 0 0 0 0 0 0 0 0 0
0 0 0 0 0 0 0 0 0 0 0 0 0 0 0 0 0 0 0 0 0 0 0 0 0 0 0 0 0 0 0 0 0 0 0 0 0 0 0 0 0 0 0
0 0 0 0 0 0 0 0 0 0 0 0 0 0 0 0 0 0 0 0 0 0 0 0 0 0 0 0 0 0 0 0 0 0 0 0 0 0 0 0 0 0 0
Wind_Speed_500mb
32 31 33 36 37 36 39 43 47 49 47 43 39 39 39 41 43 46 48 49 51 53 53 55 60 62 67 65 66 66 69 67 76 91 80 80 82 68 63 50 44 38 38
33 34 35 37 36 34 35 39 43 46 43 39 37 37 39 41 42 42 45 47 50 55 57 60 63 59 61 63 59 63 68 72 80 93 82 73 73 74 67 68 44 35 31
37 37 37 36 34 31 31 35 40 41 40 35 36 37 38 36 39 39 40 42 41 44 48 52 56 60 65 67 67 73 71 70 72 82 81 77 76 67 66 60 48 37 32
42 40 37 35 33 30 29 32 35 36 36 32 32 32 35 36 35 34 31 38 43 46 52 54 55 56 61 65 69 70 63 64 66 75 75 71 69 66 56 50 50 39 32
45 41 35 35 35 33 29 30 32 32 31 30 30 29 33 32 29 28 35 39 43 44 44 45 48 52 57 60 64 69 68 70 70 70 76 68 71 69 67 52 45 36 34
47 40 37 35 36 36 31 30 29 27 27 25 25 28 27 24 25 24 33 32 33 37 41 43 45 47 47 49 54 59 62 65 64 56 58 52 59 47 63 48 40 40 42
46 39 39 36 37 36 33 32 28 24 27 22 22 25 24 26 29 26 26 29 31 34 40 45 46 46 46 48 45 44 44 43 47 52 57 59 62 62 50 38 37 45 45
44 42 40 37 36 34 32 31 27 23 25 20 18 19 23 29 32 32 32 32 36 39 40 43 45 53 51 50 43 32 29 32 41 47 50 48 50 52 54 45 37 38 43
42 43 39 36 35 33 29 27 23 21 20 18 16 22 31 30 30 32 36 33 34 37 40 39 41 51 56 50 39 27 23 25 30 35 36 41 44 41 50 38 42 41 47
39 36 37 38 34 31 26 24 20 19 15 16 20 28 35 32 29 29 30 31 30 32 32 35 38 47 55 51 35 24 20 20 21 24 28 32 36 41 45 54 49 50 52
30 36 42 38 32 28 28 25 21 18 18 16 21 29 31 29 24 23 26 29 32 35 39 41 43 49 54 50 32 25 22 16 13 12 13 12 11 16 21 27 35 49 57
34 39 39 35 32 30 29 27 24 21 20 20 18 19 23 22 20 20 24 27 31 35 39 40 42 46 51 54 39 31 24 18 9 3 6 14 17 19 20 21 29 33 40
30 32 34 34 34 31 31 29 26 25 23 22 15 15 18 19 17 17 20 23 27 32 36 39 38 39 39 47 48 36 25 19 14 13 22 28 36 36 38 33 34 33 31
33 31 32 34 36 34 33 32 30 28 25 24 16 12 14 17 13 13 14 16 22 29 33 35 36 37 36 36 42 45 37 34 28 29 31 32 28 30 36 35 29 28 30
39 35 36 34 35 37 36 34 31 28 30 27 21 13 12 16 14 11 11 14 20 26 31 26 23 28 33 38 38 39 42 40 37 35 30 29 27 26 32 31 29 32 42
42 40 40 40 36 38 41 38 36 32 32 29 24 16 10 13 13 12 9 8 13 19 23 24 28 32 36 39 41 40 41 42 42 38 34 30 29 29 30 33 34 39 49
48 44 41 46 44 42 45 46 41 39 36 33 26 22 15 11 13 11 8 5 12 17 18 21 26 29 33 35 38 41 44 44 43 41 41 41 39 39 37 39 38 41 50
56 56 51 48 48 45 48 48 45 45 40 34 32 27 23 19 15 13 10 2 7 12 13 18 21 25 28 30 34 38 40 38 40 42 43 43 40 40 43 44 42 43 44
62 63 61 54 51 49 46 49 51 49 45 38 34 34 30 27 23 17 13 8 7 7 7 11 13 19 22 25 29 31 32 34 37 37 41 40 39 35 40 40 39 38 37
64 63 61 56 54 54 52 53 56 57 53 49 46 40 36 34 29 23 18 13 10 10 6 6 8 11 14 17 21 24 25 28 31 32 35 36 35 35 39 38 35 35 35
59 57 57 58 58 57 57 56 58 62 61 58 52 45 41 35 31 29 24 20 17 14 11 7 8 9 10 12 14 17 18 20 23 25 26 29 30 28 32 32 32 31 31
58 57 59 61 61 60 62 60 60 65 67 63 58 52 51 46 43 37 31 25 21 17 15 11 9 6 7 8 12 14 14 14 16 19 18 20 22 22 24 24 25 26 25
56 54 56 60 61 63 64 66 64 66 70 67 63 60 62 54 48 41 35 30 26 23 21 17 14 12 10 8 7 6 13 15 13 16 16 14 14 15 17 16 16 14 14
59 58 59 64 64 65 66 69 67 67 71 73 67 68 66 58 52 45 41 37 33 31 28 24 20 17 15 13 11 9 9 8 11 11 15 16 14 14 13 13 12 12 11
63 64 68 69 68 68 67 70 69 69 72 75 74 73 70 62 57 51 47 42 38 35 32 28 25 22 19 17 15 13 12 10 9 9 9 12 13 12 13 13 13 12 13
70 74 76 74 73 71 70 72 71 69 73 77 76 75 73 67 61 57 53 48 43 40 38 34 30 27 24 21 19 18 16 14 13 11 11 11 10 10 11 12 12 12 12
Wind_Direction_500mb
266 271 279 286 291 296 307 317 321 320 319 314 310 304 302 300 295 291 287 285 283 282 281 279 276 276 279 279 278 277 274 273 272 281 283 281 289 292 297 294 285 271 267
268 273 279 284 288 292 306 318 325 325 325 321 315 311 306 302 300 296 294 290 288 286 283 282 283 286 280 281 277 275 274 273 274 278 284 287 284 288 288 292 280 272 271
264 268 273 278 281 287 303 320 326 326 326 320 317 317 314 311 306 303 301 302 300 297 294 292 289 285 283 281 280 280 275 271 269 272 276 282 286 288 290 285 281 271 270
258 262 270 276 277 281 296 318 325 326 327 323 324 327 321 318 315 311 312 307 305 302 298 294 292 289 286 283 280 279 277 273 271 272 274 279 278 281 283 277 279 271 264
252 258 268 273 274 274 286 313 319 328 329 323 326 329 329 323 321 319 318 306 304 308 308 306 302 294 288 284 280 279 280 278 274 270 272 278 275 270 275 275 270 262 258
247 254 259 268 270 270 278 301 311 325 328 318 323 330 330 326 325 328 316 332 331 329 328 327 322 317 308 298 284 273 272 273 272 268 270 268 265 276 269 270 259 256 254
242 246 255 264 268 268 272 288 300 313 328 317 321 322 332 336 338 338 334 337 337 336 337 337 334 334 328 319 300 282 277 269 258 263 268 262 261 264 271 255 260 255 251
242 244 250 258 265 266 270 280 293 301 304 321 320 337 342 340 341 331 329 328 330 333 332 328 336 340 342 334 321 298 283 266 260 264 268 270 260 260 259 261 255 255 245
239 242 246 251 260 263 266 275 286 303 286 302 314 325 338 335 324 326 326 334 337 337 333 336 343 339 346 343 335 316 298 281 271 270 272 264 263 255 244 233 251 243 225
245 242 241 245 254 259 261 268 274 283 285 289 306 315 331 333 329 330 333 340 341 341 345 353 356 357 355 353 347 337 318 301 286 272 266 268 268 255 238 245 240 225 215
246 233 234 240 249 253 252 259 262 266 273 281 295 310 325 330 336 351 352 351 353 357 360 4 7 10 6 5 4 2 355 350 326 286 262 264 265 244 228 206 209 214 210
240 233 235 237 243 249 249 252 255 256 267 275 291 308 316 318 329 347 353 357 4 6 3 7 8 12 14 16 20 20 16 18 5 343 108 110 111 118 131 164 178 196 195
243 238 238 233 238 244 246 248 250 255 257 266 279 297 302 306 319 342 352 359 10 12 10 10 9 11 15 26 30 32 35 47 62 86 89 93 97 106 116 130 144 145 140
242 240 241 236 237 242 247 243 247 249 253 258 261 277 292 297 306 331 344 7 17 21 18 15 13 16 20 29 37 47 54 58 70 83 87 91 94 107 115 122 125 117 117
247 244 247 243 242 243 245 247 245 243 248 253 256 251 273 285 294 319 336 15 22 26 24 17 24 31 37 40 43 48 57 62 65 69 80 91 101 104 105 113 113 120 118
248 248 250 253 247 246 246 242 245 240 245 245 246 245 231 269 281 300 321 14 32 36 28 27 36 43 45 47 49 50 55 58 64 69 74 78 87 95 95 99 106 113 114
247 252 250 255 250 248 245 243 241 240 238 238 233 231 208 229 262 279 295 4 39 41 34 43 41 46 53 53 55 57 59 60 61 66 75 81 84 87 95 100 102 106 109
249 246 247 249 255 252 248 245 240 241 238 235 228 222 210 204 227 247 258 235 76 51 39 37 44 54 56 59 60 63 62 66 70 74 77 79 82 86 94 99 105 107 110
252 247 243 245 251 254 248 244 241 238 236 230 226 218 215 208 202 217 229 228 156 98 68 61 48 51 56 60 62 62 66 71 73 74 80 83 88 90 93 95 99 104 111
247 245 239 243 246 248 247 241 237 234 233 227 225 217 212 217 206 204 217 222 205 156 136 99 83 74 66 63 69 68 63 68 70 74 76 78 83 88 95 100 102 109 115
239 235 237 241 240 243 248 244 240 235 231 229 224 219 215 215 214 208 209 213 212 189 171 160 134 121 114 100 89 82 78 77 77 73 77 82 80 81 86 92 99 105 109
234 238 243 244 243 245 248 246 242 236 231 228 223 216 218 210 212 210 207 206 211 210 201 192 185 162 132 120 121 114 104 96 92 87 82 86 88 90 89 91 93 92 90
240 242 242 244 245 247 247 247 243 237 231 226 222 216 219 214 211 210 209 209 211 213 213 208 205 195 180 162 144 131 133 128 123 122 112 110 107 108 107 105 101 97 102
246 248 246 247 247 248 247 247 244 237 230 225 220 217 218 215 214 210 208 209 211 214 215 212 211 211 199 189 184 175 161 146 134 133 136 133 133 133 134 134 137 138 140
246 248 247 246 247 247 246 245 241 236 230 223 218 217 217 215 213 211 212 213 213 216 217 216 216 216 212 207 203 196 190 187 180 168 163 154 151 151 154 151 151 152 155
247 247 248 247 247 245 243 240 238 234 230 223 217 216 217 214 213 214 215 215 215 216 217 218 219 219 220 219 216 212 208 206 203 196 191 182 175 180 182 180 180 174 176
Wind_Speed_850mb
32 31 33 36 37 36 39 43 47 49 47 43 39 39 39 41 43 46 48 49 51 53 53 55 60 62 67 65 66 66 69 67 76 91 80 80 82 68 63 50 44 38 38
33 34 35 37 36 34 35 39 43 46 43 39 37 37 39 41 42 42 45 47 50 55 57 60 63 59 61 63 59 63 68 72 80 93 82 73 73 74 67 68 44 35 31
37 37 37 36 34 31 31 35 40 41 40 35 36 37 38 36 39 39 40 42 41 44 48 52 56 60 65 67 67 73 71 70 72 82 81 77 76 67 66 60 48 37 32
42 40 37 35 33 30 29 32 35 36 36 32 32 32 35 36 35 34 31 38 43 46 52 54 55 56 61 65 69 70 63 64 66 75 75 71 69 66 56 50 50 39 32
45 41 35 35 35 33 29 30 32 32 31 30 30 29 33 32 29 28 35 39 43 44 44 45 48 52 57 60 64 69 68 70 70 70 76 68 71 69 67 52 45 36 34
47 40 37 35 36 36 31 30 29 27 27 25 25 28 27 24 25 24 33 32 33 37 41 43 45 47 47 49 54 59 62 65 64 56 58 52 59 47 63 48 40 40 42
46 39 39 36 37 36 33 32 28 24 27 22 22 25 24 26 29 26 26 29 31 34 40 45 46 46 46 48 45 44 44 43 47 52 57 59 62 62 50 38 37 45 45
44 42 40 37 36 34 32 31 27 23 25 20 18 19 23 29 32 32 32 32 36 39 40 43 45 53 51 50 43 32 29 32 41 47 50 48 50 52 54 45 37 38 43
42 43 39 36 35 33 29 27 23 21 20 18 16 22 31 30 30 32 36 33 34 37 40 39 41 51 56 50 39 27 23 25 30 35 36 41 44 41 50 38 42 41 47
39 36 37 38 34 31 26 24 20 19 15 16 20 28 35 32 29 29 30 31 30 32 32 35 38 47 55 51 35 24 20 20 21 24 28 32 36 41 45 54 49 50 52
30 36 42 38 32 28 28 25 21 18 18 16 21 29 31 29 24 23 26 29 32 35 39 41 43 49 54 50 32 25 22 16 13 12 13 12 11 16 21 27 35 49 57
34 39 39 35 32 30 29 27 24 21 20 20 18 19 23 22 20 20 24 27 31 35 39 40 42 46 51 54 39 31 24 18 9 3 6 14 17 19 20 21 29 33 40
30 32 34 34 34 31 31 29 26 25 23 22 15 15 18 19 17 17 20 23 27 32 36 39 38 39 39 47 48 36 25 19 14 13 22 28 36 36 38 33 34 33 31
33 31 32 34 36 34 33 32 30 28 25 24 16 12 14 17 13 13 14 16 22 29 33 35 36 37 36 36 42 45 37 34 28 29 31 32 28 30 36 35 29 28 30
39 35 36 34 35 37 36 34 31 28 30 27 21 13 12 16 14 11 11 14 20 26 31 26 23 28 33 38 38 39 42 40 37 35 30 29 27 26 32 31 29 32 42
42 40 40 40 36 38 41 38 36 32 32 29 24 16 10 13 13 12 9 8 13 19 23 24 28 32 36 39 41 40 41 42 42 38 34 30 29 29 30 33 34 39 49
48 44 41 46 44 42 45 46 41 39 36 33 26 22 15 11 13 11 8 5 12 17 18 21 26 29 33 35 38 41 44 44 43 41 41 41 39 39 37 39 38 41 50
56 56 51 48 48 45 48 48 45 45 40 34 32 27 23 19 15 13 10 2 7 12 13 18 21 25 28 30 34 38 40 38 40 42 43 43 40 40 43 44 42 43 44
62 63 61 54 51 49 46 49 51 49 45 38 34 34 30 27 23 17 13 8 7 7 7 11 13 19 22 25 29 31 32 34 37 37 41 40 39 35 40 40 39 38 37
64 63 61 56 54 54 52 53 56 57 53 49 46 40 36 34 29 23 18 13 10 10 6 6 8 11 14 17 21 24 25 28 31 32 35 36 35 35 39 38 35 35 35
59 57 57 58 58 57 57 56 58 62 61 58 52 45 41 35 31 29 24 20 17 14 11 7 8 9 10 12 14 17 18 20 23 25 26 29 30 28 32 32 32 31 31
58 57 59 61 61 60 62 60 60 65 67 63 58 52 51 46 43 37 31 25 21 17 15 11 9 6 7 8 12 14 14 14 16 19 18 20 22 22 24 24 25 26 25
56 54 56 60 61 63 64 66 64 66 70 67 63 60 62 54 48 41 35 30 26 23 21 17 14 12 10 8 7 6 13 15 13 16 16 14 14 15 17 16 16 14 14
59 58 59 64 64 65 66 69 67 67 71 73 67 68 66 58 52 45 41 37 33 31 28 24 20 17 15 13 11 9 9 8 11 11 15 16 14 14 13 13 12 12 11
63 64 68 69 68 68 67 70 69 69 72 75 74 73 70 62 57 51 47 42 38 35 32 28 25 22 19 17 15 13 12 10 9 9 9 12 13 12 13 13 13 12 13
70 74 76 74 73 71 70 72 71 69 73 77 76 75 73 67 61 57 53 48 43 40 38 34 30 27 24 21 19 18 16 14 13 11 11 11 10 10 11 12 12 12 12
Wind_Direction_850mb
266 271 279 286 291 296 307 317 321 320 319 314 310 304 302 300 295 291 287 285 283 282 281 279 276 276 279 279 278 277 274 273 272 281 283 281 289 292 297 294 285 271 267
268 273 279 284 288 292 306 318 325 325 325 321 315 311 306 302 300 296 294 290 288 286 283 282 283 286 280 281 277 275 274 273 274 278 284 287 284 288 288 292 280 272 271
264 268 273 278 281 287 303 320 326 326 326 320 317 317 314 311 306 303 301 302 300 297 294 292 289 285 283 281 280 280 275 271 269 272 276 282 286 288 290 285 281 271 270
258 262 270 276 277 281 296 318 325 326 327 323 324 327 321 318 315 311 312 307 305 302 298 294 292 289 286 283 280 279 277 273 271 272 274 279 278 281 283 277 279 271 264
252 258 268 273 274 274 286 313 319 328 329 323 326 329 329 323 321 319 318 306 304 308 308 306 302 294 288 284 280 279 280 278 274 270 272 278 275 270 275 275 270 262 258
247 254 259 268 270 270 278 301 311 325 328 318 323 330 330 326 325 328 316 332 331 329 328 327 322 317 308 298 284 273 272 273 272 268 270 268 265 276 269 270 259 256 254
242 246 255 264 268 268 272 288 300 313 328 317 321 322 332 336 338 338 334 337 337 336 337 337 334 334 328 319 300 282 277 269 258 263 268 262 261 264 271 255 260 255 251
242 244 250 258 265 266 270 280 293 301 304 321 320 337 342 340 341 331 329 328 330 333 332 328 336 340 342 334 321 298 283 266 260 264 268 270 260 260 259 261 255 255 245
239 242 246 251 260 263 266 275 286 303 286 302 314 325 338 335 324 326 326 334 337 337 333 336 343 339 346 343 335 316 298 281 271 270 272 264 263 255 244 233 251 243 225
245 242 241 245 254 259 261 268 274 283 285 289 306 315 331 333 329 330 333 340 341 341 345 353 356 357 355 353 347 337 318 301 286 272 266 268 268 255 238 245 240 225 215
246 233 234 240 249 253 252 259 262 266 273 281 295 310 325 330 336 351 352 351 353 357 360 4 7 10 6 5 4 2 355 350 326 286 262 264 265 244 228 206 209 214 210
240 233 235 237 243 249 249 252 255 256 267 275 291 308 316 318 329 347 353 357 4 6 3 7 8 12 14 16 20 20 16 18 5 343 108 110 111 118 131 164 178 196 195
243 238 238 233 238 244 246 248 250 255 257 266 279 297 302 306 319 342 352 359 10 12 10 10 9 11 15 26 30 32 35 47 62 86 89 93 97 106 116 130 144 145 140
242 240 241 236 237 242 247 243 247 249 253 258 261 277 292 297 306 331 344 7 17 21 18 15 13 16 20 29 37 47 54 58 70 83 87 91 94 107 115 122 125 117 117
247 244 247 243 242 243 245 247 245 243 248 253 256 251 273 285 294 319 336 15 22 26 24 17 24 31 37 40 43 48 57 62 65 69 80 91 101 104 105 113 113 120 118
248 248 250 253 247 246 246 242 245 240 245 245 246 245 231 269 281 300 321 14 32 36 28 27 36 43 45 47 49 50 55 58 64 69 74 78 87 95 95 99 106 113 114
247 252 250 255 250 248 245 243 241 240 238 238 233 231 208 229 262 279 295 4 39 41 34 43 41 46 53 53 55 57 59 60 61 66 75 81 84 87 95 100 102 106 109
249 246 247 249 255 252 248 245 240 241 238 235 228 222 210 204 227 247 258 235 76 51 39 37 44 54 56 59 60 63 62 66 70 74 77 79 82 86 94 99 105 107 110
252 247 243 245 251 254 248 244 241 238 236 230 226 218 215 208 202 217 229 228 156 98 68 61 48 51 56 60 62 62 66 71 73 74 80 83 88 90 93 95 99 104 111
247 245 239 243 246 248 247 241 237 234 233 227 225 217 212 217 206 204 217 222 205 156 136 99 83 74 66 63 69 68 63 68 70 74 76 78 83 88 95 100 102 109 115
239 235 237 241 240 243 248 244 240 235 231 229 224 219 215 215 214 208 209 213 212 189 171 160 134 121 114 100 89 82 78 77 77 73 77 82 80 81 86 92 99 105 109
234 238 243 244 243 245 248 246 242 236 231 228 223 216 218 210 212 210 207 206 211 210 201 192 185 162 132 120 121 114 104 96 92 87 82 86 88 90 89 91 93 92 90
240 242 242 244 245 247 247 247 243 237 231 226 222 216 219 214 211 210 209 209 211 213 213 208 205 195 180 162 144 131 133 128 123 122 112 110 107 108 107 105 101 97 102
246 248 246 247 247 248 247 247 244 237 230 225 220 217 218 215 214 210 208 209 211 214 215 212 211 211 199 189 184 175 161 146 134 133 136 133 133 133 134 134 137 138 140
246 248 247 246 247 247 246 245 241 236 230 223 218 217 217 215 213 211 212 213 213 216 217 216 216 216 212 207 203 196 190 187 180 168 163 154 151 151 154 151 151 152 155
247 247 248 247 247 245 243 240 238 234 230 223 217 216 217 214 213 214 215 215 215 216 217 218 219 219 220 219 216 212 208 206 203 196 191 182 175 180 182 180 180 174 176